Time,TemperatureF,DewpointF,PressureIn,WindDirection,WindDirectionDegrees,WindSpeedMPH,WindSpeedGustMPH,Humidity,HourlyPrecipIn,Conditions,Clouds,dailyrainin,SoftwareType,DateUTC
2015-09-02 00:04:00,81.9,77.3,30.02,ESE,109,0.0,0.0,86,0.00,,---,0.00,VWS V14.00,2015-09-02 04:04:00,
2015-09-02 00:09:00,81.9,77.3,30.02,ESE,109,0.0,0.0,86,0.00,,---,0.00,VWS V14.00,2015-09-02 04:09:00,
2015-09-02 00:14:00,81.9,77.3,30.02,ESE,109,0.0,0.0,86,0.00,,---,0.00,VWS V14.00,2015-09-02 04:14:00,
2015-09-02 00:19:00,81.9,77.3,30.02,ESE,109,0.0,0.0,86,0.00,,---,0.00,VWS V14.00,2015-09-02 04:19:00,
2015-09-02 00:24:00,81.9,77.3,30.02,ESE,109,0.0,0.0,86,0.00,,---,0.00,VWS V14.00,2015-09-02 04:24:00,
2015-09-02 00:29:00,81.8,77.6,30.02,ESE,109,0.0,0.0,87,0.00,,---,0.00,VWS V14.00,2015-09-02 04:29:00,
2015-09-02 00:39:00,81.9,77.3,30.01,ESE,109,0.0,0.0,86,0.00,,---,0.00,VWS V14.00,2015-09-02 04:39:00,
2015-09-02 00:44:00,82.0,77.4,30.01,ESE,109,0.0,0.0,86,0.00,,---,0.00,VWS V14.00,2015-09-02 04:44:00,
2015-09-02 00:49:00,82.2,77.6,30.01,ESE,107,0.0,0.0,86,0.00,,---,0.00,VWS V14.00,2015-09-02 04:49:00,
2015-09-02 00:54:00,82.4,77.8,30.01,East,99,0.0,1.0,86,0.00,,---,0.00,VWS V14.00,2015-09-02 04:54:00,
2015-09-02 00:59:00,82.5,77.9,30.01,East,99,0.0,1.0,86,0.00,,---,0.00,VWS V14.00,2015-09-02 04:59:00,
2015-09-02 01:04:00,82.6,77.6,30.01,East,86,0.0,1.0,85,0.00,,---,0.00,VWS V14.00,2015-09-02 05:04:00,
2015-09-02 01:09:00,82.8,77.8,30.00,East,86,0.0,0.0,85,0.00,,---,0.00,VWS V14.00,2015-09-02 05:09:00,
2015-09-02 01:14:00,82.9,77.9,30.00,East,86,0.0,0.0,85,0.00,,---,0.00,VWS V14.00,2015-09-02 05:14:00,
2015-09-02 01:19:00,82.9,77.9,30.00,East,86,0.0,0.0,85,0.00,,---,0.00,VWS V14.00,2015-09-02 05:19:00,
2015-09-02 01:24:00,83.0,78.0,30.00,East,86,0.0,0.0,85,0.00,,---,0.00,VWS V14.00,2015-09-02 05:24:00,
2015-09-02 01:29:00,83.0,77.7,30.00,East,87,0.0,0.0,84,0.00,,---,0.00,VWS V14.00,2015-09-02 05:29:00,
2015-09-02 01:34:00,83.1,78.1,30.00,East,87,0.0,0.0,85,0.00,,---,0.00,VWS V14.00,2015-09-02 05:34:00,
2015-09-02 01:39:00,83.1,78.1,29.99,East,87,0.0,0.0,85,0.00,,---,0.00,VWS V14.00,2015-09-02 05:39:00,
2015-09-02 01:44:00,83.1,78.1,29.99,East,86,0.0,0.0,85,0.00,,---,0.00,VWS V14.00,2015-09-02 05:44:00,
2015-09-02 01:49:00,83.2,78.2,29.99,East,89,0.0,0.0,85,0.00,,---,0.00,VWS V14.00,2015-09-02 05:49:00,
2015-09-02 01:54:00,83.3,78.3,29.99,SE,142,0.0,1.0,85,0.00,,---,0.00,VWS V14.00,2015-09-02 05:54:00,
2015-09-02 01:59:00,83.3,77.6,29.99,ESE,115,0.0,9.0,83,0.00,,---,0.00,VWS V14.00,2015-09-02 05:59:00,
2015-09-02 02:04:00,83.4,77.7,29.99,SE,128,0.0,9.0,83,0.00,,---,0.00,VWS V14.00,2015-09-02 06:04:00,
2015-09-02 02:09:00,83.5,77.8,29.99,SE,132,0.0,6.0,83,0.00,,---,0.00,VWS V14.00,2015-09-02 06:09:00,
2015-09-02 02:14:00,83.6,77.9,29.99,ESE,121,0.0,6.0,83,0.00,,---,0.00,VWS V14.00,2015-09-02 06:14:00,
2015-09-02 02:19:00,83.7,78.3,29.99,East,80,0.0,6.0,84,0.00,,---,0.00,VWS V14.00,2015-09-02 06:19:00,
2015-09-02 02:24:00,83.7,78.3,29.98,ESE,111,0.0,6.0,84,0.00,,---,0.00,VWS V14.00,2015-09-02 06:24:00,
2015-09-02 02:29:00,83.7,78.3,29.99,SE,134,0.0,7.0,84,0.00,,---,0.00,VWS V14.00,2015-09-02 06:29:00,
2015-09-02 02:39:00,83.7,78.0,29.98,ESE,122,0.0,0.0,83,0.00,,---,0.00,VWS V14.00,2015-09-02 06:39:00,
2015-09-02 02:44:00,83.7,78.0,29.98,SE,142,6.0,6.0,83,0.00,,---,0.00,VWS V14.00,2015-09-02 06:44:00,
2015-09-02 02:49:00,83.7,77.6,29.98,ESE,118,0.0,8.0,82,0.00,,---,0.00,VWS V14.00,2015-09-02 06:49:00,
2015-09-02 02:53:00,83.8,78.1,29.99,SE,139,0.0,8.0,83,0.00,,---,0.00,VWS V14.00,2015-09-02 06:53:00,
2015-09-02 02:58:00,83.9,78.2,29.98,SE,134,0.0,8.0,83,0.00,,---,0.00,VWS V14.00,2015-09-02 06:58:00,
2015-09-02 03:03:00,83.8,77.7,29.98,SE,132,0.0,8.0,82,0.00,,---,0.00,VWS V14.00,2015-09-02 07:03:00,
2015-09-02 03:08:00,83.8,78.1,29.98,East,89,0.0,1.0,83,0.00,,---,0.00,VWS V14.00,2015-09-02 07:08:00,
2015-09-02 03:13:00,83.8,78.1,29.98,SE,144,0.0,1.0,83,0.00,,---,0.00,VWS V14.00,2015-09-02 07:13:00,
2015-09-02 03:18:00,83.8,78.1,29.98,ESE,107,0.0,1.0,83,0.00,,---,0.00,VWS V14.00,2015-09-02 07:18:00,
2015-09-02 03:23:00,83.7,78.0,29.98,ESE,108,4.0,5.0,83,0.00,,---,0.00,VWS V14.00,2015-09-02 07:23:00,
2015-09-02 03:28:00,83.7,78.0,29.98,East,93,0.0,6.0,83,0.00,,---,0.00,VWS V14.00,2015-09-02 07:28:00,
2015-09-02 03:33:00,83.6,78.3,29.97,East,94,0.0,6.0,84,0.00,,---,0.00,VWS V14.00,2015-09-02 07:33:00,
2015-09-02 03:38:00,83.6,77.9,29.97,SE,134,0.0,0.0,83,0.00,,---,0.00,VWS V14.00,2015-09-02 07:38:00,
2015-09-02 03:43:00,83.6,77.9,29.97,SE,139,0.0,1.0,83,0.00,,---,0.00,VWS V14.00,2015-09-02 07:43:00,
2015-09-02 03:48:00,83.6,77.9,29.97,SE,138,0.0,1.0,83,0.00,,---,0.00,VWS V14.00,2015-09-02 07:48:00,
2015-09-02 03:53:00,83.6,77.9,29.97,ESE,119,0.0,1.0,83,0.00,,---,0.00,VWS V14.00,2015-09-02 07:53:00,
2015-09-02 03:58:00,83.6,77.9,29.97,East,96,0.0,1.0,83,0.00,,---,0.00,VWS V14.00,2015-09-02 07:58:00,
2015-09-02 04:03:00,83.6,77.9,29.97,East,99,0.0,1.0,83,0.00,,---,0.00,VWS V14.00,2015-09-02 08:03:00,
2015-09-02 04:08:00,83.5,77.8,29.97,ESE,120,0.0,0.0,83,0.00,,---,0.00,VWS V14.00,2015-09-02 08:08:00,
2015-09-02 04:13:00,83.5,77.8,29.97,ESE,119,0.0,0.0,83,0.00,,---,0.00,VWS V14.00,2015-09-02 08:13:00,
2015-09-02 04:18:00,83.5,78.2,29.97,ESE,120,0.0,0.0,84,0.00,,---,0.00,VWS V14.00,2015-09-02 08:18:00,
2015-09-02 04:23:00,83.5,78.2,29.97,ESE,109,0.0,0.0,84,0.00,,---,0.00,VWS V14.00,2015-09-02 08:23:00,
2015-09-02 04:28:00,83.5,78.2,29.97,ESE,110,0.0,0.0,84,0.00,,---,0.00,VWS V14.00,2015-09-02 08:28:00,
2015-09-02 04:33:00,83.4,77.7,29.97,SE,129,4.0,4.0,83,0.00,,---,0.00,VWS V14.00,2015-09-02 08:33:00,
2015-09-02 04:38:00,83.4,77.7,29.97,ESE,115,0.0,0.0,83,0.00,,---,0.00,VWS V14.00,2015-09-02 08:38:00,
2015-09-02 04:43:00,83.4,77.7,29.97,ESE,117,0.0,0.0,83,0.00,,---,0.00,VWS V14.00,2015-09-02 08:43:00,
2015-09-02 04:48:00,83.4,77.7,29.97,ESE,119,0.0,1.0,83,0.00,,---,0.00,VWS V14.00,2015-09-02 08:48:00,
2015-09-02 04:53:00,83.4,77.7,29.97,ESE,121,0.0,1.0,83,0.00,,---,0.00,VWS V14.00,2015-09-02 08:53:00,
2015-09-02 04:58:00,83.4,77.7,29.97,ESE,120,0.0,1.0,83,0.00,,---,0.00,VWS V14.00,2015-09-02 08:58:00,
2015-09-02 05:03:00,83.4,78.1,29.97,ESE,121,0.0,1.0,84,0.00,,---,0.00,VWS V14.00,2015-09-02 09:03:00,
2015-09-02 05:08:00,83.3,78.0,29.97,ESE,120,0.0,0.0,84,0.00,,---,0.00,VWS V14.00,2015-09-02 09:08:00,
2015-09-02 05:13:00,83.3,78.3,29.97,ESE,121,0.0,0.0,85,0.00,,---,0.00,VWS V14.00,2015-09-02 09:13:00,
2015-09-02 05:18:00,83.2,77.9,29.98,ESE,121,0.0,0.0,84,0.00,,---,0.00,VWS V14.00,2015-09-02 09:18:00,
2015-09-02 05:23:00,83.2,77.9,29.98,ESE,121,0.0,0.0,84,0.00,,---,0.00,VWS V14.00,2015-09-02 09:23:00,
2015-09-02 05:28:00,83.1,77.8,29.98,SSW,205,0.0,0.0,84,0.00,,---,0.00,VWS V14.00,2015-09-02 09:28:00,
2015-09-02 05:33:00,83.0,77.7,29.98,SSW,205,0.0,0.0,84,0.00,,---,0.00,VWS V14.00,2015-09-02 09:33:00,
2015-09-02 05:38:00,83.0,78.0,29.98,SSW,204,0.0,0.0,85,0.00,,---,0.00,VWS V14.00,2015-09-02 09:38:00,
2015-09-02 05:43:00,83.0,78.0,29.98,SSW,204,0.0,0.0,85,0.00,,---,0.00,VWS V14.00,2015-09-02 09:43:00,
2015-09-02 05:48:00,82.9,77.9,29.97,South,172,0.0,0.0,85,0.00,,---,0.00,VWS V14.00,2015-09-02 09:48:00,
2015-09-02 05:53:00,82.9,77.9,29.98,South,172,0.0,0.0,85,0.00,,---,0.00,VWS V14.00,2015-09-02 09:53:00,
2015-09-02 05:58:00,82.9,77.9,29.98,South,171,0.0,0.0,85,0.00,,---,0.00,VWS V14.00,2015-09-02 09:58:00,
2015-09-02 06:03:00,82.8,77.8,29.99,South,171,0.0,0.0,85,0.00,,---,0.00,VWS V14.00,2015-09-02 10:03:00,
2015-09-02 06:08:00,82.8,77.8,29.99,South,171,0.0,0.0,85,0.00,,---,0.00,VWS V14.00,2015-09-02 10:08:00,
2015-09-02 06:13:00,82.8,78.2,29.99,South,171,0.0,0.0,86,0.00,,---,0.00,VWS V14.00,2015-09-02 10:13:00,
2015-09-02 06:18:00,82.8,78.2,29.99,South,171,0.0,0.0,86,0.00,,---,0.00,VWS V14.00,2015-09-02 10:18:00,
2015-09-02 06:23:00,82.8,78.5,29.99,South,171,0.0,0.0,87,0.00,,---,0.00,VWS V14.00,2015-09-02 10:23:00,
2015-09-02 06:28:00,82.7,78.4,29.99,South,171,0.0,0.0,87,0.00,,---,0.00,VWS V14.00,2015-09-02 10:28:00,
2015-09-02 06:33:00,82.7,78.8,30.00,South,171,0.0,0.0,88,0.00,,---,0.00,VWS V14.00,2015-09-02 10:33:00,
2015-09-02 06:38:00,82.6,78.7,30.00,South,171,0.0,0.0,88,0.00,,---,0.00,VWS V14.00,2015-09-02 10:38:00,
2015-09-02 06:43:00,82.6,78.3,30.00,South,171,0.0,0.0,87,0.00,,---,0.00,VWS V14.00,2015-09-02 10:43:00,
2015-09-02 06:48:00,82.4,78.5,30.00,South,171,0.0,0.0,88,0.00,,---,0.00,VWS V14.00,2015-09-02 10:48:00,
2015-09-02 06:53:00,82.3,78.4,30.00,South,171,0.0,0.0,88,0.00,,---,0.00,VWS V14.00,2015-09-02 10:53:00,
2015-09-02 06:58:00,82.2,78.3,30.01,South,171,0.0,0.0,88,0.00,,---,0.00,VWS V14.00,2015-09-02 10:58:00,
2015-09-02 07:03:00,82.1,78.5,30.01,South,171,0.0,0.0,89,0.00,,---,0.00,VWS V14.00,2015-09-02 11:03:00,
2015-09-02 07:08:00,82.0,78.4,30.01,South,171,0.0,0.0,89,0.00,,---,0.00,VWS V14.00,2015-09-02 11:08:00,
2015-09-02 07:13:00,81.9,78.3,30.01,South,171,0.0,0.0,89,0.00,,---,0.00,VWS V14.00,2015-09-02 11:13:00,
2015-09-02 07:18:00,81.8,78.2,30.01,South,171,0.0,0.0,89,0.00,,---,0.00,VWS V14.00,2015-09-02 11:18:00,
2015-09-02 07:23:00,81.8,78.2,30.01,South,171,0.0,0.0,89,0.00,,---,0.00,VWS V14.00,2015-09-02 11:23:00,
2015-09-02 07:28:00,81.8,78.2,30.01,South,171,0.0,0.0,89,0.00,,---,0.00,VWS V14.00,2015-09-02 11:28:00,
2015-09-02 07:33:00,81.8,78.6,30.01,South,171,0.0,0.0,90,0.00,,---,0.00,VWS V14.00,2015-09-02 11:33:00,
2015-09-02 07:38:00,81.8,78.6,30.01,South,171,0.0,0.0,90,0.00,,---,0.00,VWS V14.00,2015-09-02 11:38:00,
2015-09-02 07:43:00,81.8,78.6,30.02,SSE,167,0.0,0.0,90,0.00,,---,0.00,VWS V14.00,2015-09-02 11:43:00,
2015-09-02 07:48:00,81.9,78.7,30.02,South,171,0.0,0.0,90,0.00,,---,0.00,VWS V14.00,2015-09-02 11:48:00,
2015-09-02 07:53:00,82.0,79.1,30.02,South,171,0.0,0.0,91,0.00,,---,0.00,VWS V14.00,2015-09-02 11:53:00,
2015-09-02 07:58:00,82.2,79.3,30.02,South,171,0.0,0.0,91,0.00,,---,0.00,VWS V14.00,2015-09-02 11:58:00,
2015-09-02 08:03:00,82.3,79.4,30.02,South,171,0.0,0.0,91,0.00,,---,0.00,VWS V14.00,2015-09-02 12:03:00,
2015-09-02 08:08:00,82.6,79.4,30.02,South,171,0.0,0.0,90,0.00,,---,0.00,VWS V14.00,2015-09-02 12:08:00,
2015-09-02 08:13:00,82.9,79.7,30.02,South,171,0.0,0.0,90,0.00,,---,0.00,VWS V14.00,2015-09-02 12:13:00,
2015-09-02 08:18:00,83.2,79.6,30.02,SSE,167,0.0,0.0,89,0.00,,---,0.00,VWS V14.00,2015-09-02 12:18:00,
2015-09-02 08:23:00,83.4,79.5,30.02,South,171,0.0,0.0,88,0.00,,---,0.00,VWS V14.00,2015-09-02 12:23:00,
2015-09-02 08:28:00,83.6,79.7,30.02,South,171,0.0,0.0,88,0.00,,---,0.00,VWS V14.00,2015-09-02 12:28:00,
2015-09-02 08:33:00,83.8,79.9,30.02,South,171,0.0,0.0,88,0.00,,---,0.00,VWS V14.00,2015-09-02 12:33:00,
2015-09-02 08:38:00,84.0,79.7,30.02,South,171,0.0,0.0,87,0.00,,---,0.00,VWS V14.00,2015-09-02 12:38:00,
2015-09-02 08:43:00,84.2,79.9,30.02,South,171,0.0,0.0,87,0.00,,---,0.00,VWS V14.00,2015-09-02 12:43:00,
2015-09-02 08:48:00,84.4,79.8,30.02,South,171,0.0,0.0,86,0.00,,---,0.00,VWS V14.00,2015-09-02 12:48:00,
2015-09-02 08:53:00,84.7,79.7,30.02,South,171,0.0,0.0,85,0.00,,---,0.00,VWS V14.00,2015-09-02 12:53:00,
2015-09-02 08:58:00,85.4,80.0,30.03,South,171,0.0,0.0,84,0.00,,---,0.00,VWS V14.00,2015-09-02 12:58:00,
2015-09-02 09:03:00,86.0,79.9,30.03,SSE,151,0.0,0.0,82,0.00,,---,0.00,VWS V14.00,2015-09-02 13:03:00,
2015-09-02 09:08:00,86.6,80.4,30.03,SSW,195,0.0,0.0,82,0.00,,---,0.00,VWS V14.00,2015-09-02 13:08:00,
2015-09-02 09:13:00,87.0,80.1,30.03,West,262,0.0,0.0,80,0.00,,---,0.00,VWS V14.00,2015-09-02 13:13:00,
2015-09-02 09:18:00,87.4,80.5,30.02,West,260,0.0,0.0,80,0.00,,---,0.00,VWS V14.00,2015-09-02 13:18:00,
2015-09-02 09:23:00,87.6,79.9,30.02,West,260,0.0,0.0,78,0.00,,---,0.00,VWS V14.00,2015-09-02 13:23:00,
2015-09-02 09:28:00,87.6,79.9,30.02,WSW,244,0.0,0.0,78,0.00,,---,0.00,VWS V14.00,2015-09-02 13:28:00,
2015-09-02 09:33:00,87.8,80.1,30.02,WSW,244,0.0,0.0,78,0.00,,---,0.00,VWS V14.00,2015-09-02 13:33:00,
2015-09-02 09:38:00,88.2,80.1,30.02,SSE,155,0.0,0.0,77,0.00,,---,0.00,VWS V14.00,2015-09-02 13:38:00,
2015-09-02 09:41:00,88.5,80.0,30.02,SSE,155,0.0,0.0,76,0.00,,---,0.00,VWS V14.00,2015-09-02 13:41:00,
2015-09-02 09:42:00,88.7,79.8,30.02,SSE,155,0.0,1.0,75,0.00,,---,0.00,VWS V14.00,2015-09-02 13:42:00,
2015-09-02 09:47:00,89.3,79.5,30.03,SE,146,0.0,5.0,73,0.00,,---,0.00,VWS V14.00,2015-09-02 13:47:00,
2015-09-02 09:52:00,89.6,79.4,30.02,SE,146,0.0,5.0,72,0.00,,---,0.00,VWS V14.00,2015-09-02 13:52:00,
2015-09-02 09:57:00,89.7,79.5,30.03,SE,144,0.0,5.0,72,0.00,,---,0.00,VWS V14.00,2015-09-02 13:57:00,
2015-09-02 10:02:00,89.7,79.1,30.03,SSE,152,0.0,5.0,71,0.00,,---,0.00,VWS V14.00,2015-09-02 14:02:00,
2015-09-02 10:07:00,89.8,80.0,30.03,SE,146,0.0,0.0,73,0.00,,---,0.00,VWS V14.00,2015-09-02 14:07:00,
2015-09-02 10:12:00,89.8,79.6,30.03,SSE,157,0.0,0.0,72,0.00,,---,0.00,VWS V14.00,2015-09-02 14:12:00,
2015-09-02 10:17:00,89.7,79.1,30.03,SE,145,0.0,0.0,71,0.00,,---,0.00,VWS V14.00,2015-09-02 14:17:00,
2015-09-02 10:22:00,89.6,79.4,30.03,South,172,0.0,0.0,72,0.00,,---,0.00,VWS V14.00,2015-09-02 14:22:00,
2015-09-02 10:27:00,89.7,79.1,30.03,ESE,113,0.0,1.0,71,0.00,,---,0.00,VWS V14.00,2015-09-02 14:27:00,
2015-09-02 10:32:00,90.0,78.9,30.04,ESE,105,0.0,1.0,70,0.00,,---,0.00,VWS V14.00,2015-09-02 14:32:00,
2015-09-02 10:37:00,90.0,78.0,30.04,SE,125,0.0,0.0,68,0.00,,---,0.00,VWS V14.00,2015-09-02 14:37:00,
2015-09-02 10:42:00,90.2,78.2,30.03,ESE,115,0.0,4.0,68,0.00,,---,0.00,VWS V14.00,2015-09-02 14:42:00,
2015-09-02 10:47:00,90.3,78.8,30.04,ESE,104,0.0,5.0,69,0.00,,---,0.00,VWS V14.00,2015-09-02 14:47:00,
2015-09-02 10:52:00,90.5,79.8,30.04,ESE,106,6.0,7.0,71,0.00,,---,0.00,VWS V14.00,2015-09-02 14:52:00,
2015-09-02 10:57:00,90.7,79.6,30.03,East,96,0.0,7.0,70,0.00,,---,0.00,VWS V14.00,2015-09-02 14:57:00,
2015-09-02 11:02:00,91.0,79.4,30.04,SE,126,0.0,7.0,69,0.00,,---,0.00,VWS V14.00,2015-09-02 15:02:00,
2015-09-02 11:07:00,91.2,79.6,30.03,ESE,109,0.0,1.0,69,0.00,,---,0.00,VWS V14.00,2015-09-02 15:07:00,
2015-09-02 11:12:00,91.3,79.7,30.03,ESE,116,0.0,6.0,69,0.00,,---,0.00,VWS V14.00,2015-09-02 15:12:00,
2015-09-02 11:17:00,91.4,79.4,30.03,SE,134,0.0,6.0,68,0.00,,---,0.00,VWS V14.00,2015-09-02 15:17:00,
2015-09-02 11:22:00,91.2,79.6,30.03,SE,144,0.0,7.0,69,0.00,,---,0.00,VWS V14.00,2015-09-02 15:22:00,
2015-09-02 11:27:00,90.9,79.8,30.03,South,191,0.0,7.0,70,0.00,,---,0.00,VWS V14.00,2015-09-02 15:27:00,
2015-09-02 11:32:00,91.2,80.1,30.03,East,90,0.0,7.0,70,0.00,,---,0.00,VWS V14.00,2015-09-02 15:32:00,
2015-09-02 11:37:00,91.3,79.7,30.03,ESE,113,2.0,6.0,69,0.00,,---,0.00,VWS V14.00,2015-09-02 15:37:00,
2015-09-02 11:42:00,91.3,79.7,30.03,ESE,123,0.0,6.0,69,0.00,,---,0.00,VWS V14.00,2015-09-02 15:42:00,
2015-09-02 11:47:00,91.0,79.4,30.03,ESE,121,4.0,9.0,69,0.00,,---,0.00,VWS V14.00,2015-09-02 15:47:00,
2015-09-02 11:52:00,90.7,79.6,30.02,ESE,117,5.0,9.0,70,0.00,,---,0.00,VWS V14.00,2015-09-02 15:52:00,
2015-09-02 11:57:00,90.7,79.1,30.03,SE,131,0.0,9.0,69,0.00,,---,0.00,VWS V14.00,2015-09-02 15:57:00,